Location: Abyssinia Baptist Church
(32.7840°N, 96.7578°W)
Time: 05:23:59
(UTC+00:00)

H-2A R/B - Pass Details

Date: 01 July 2022
Orbit: 576 x 652 km, 98.5° (Epoch: 17 August)

Event Time Altitude Azimuth Distance (km) Brightness Sun altitude
Rises 02:39:00 0° 12° (NNE) 2,933 5.9 -11.4°
Reaches altitude 10° 02:41:12 10° 13° (NNE) 2,031 5.0 -11.8°
Maximum altitude 02:45:38 90° 48° (NE) 650 2.1 -12.5°
Drops below altitude 10° 02:50:07 10° 194° (SSW) 2,045 4.5 -13.2°
Sets 02:52:19 0° 194° (SSW) 2,955 5.3 -13.6°
